Wind_Speed
74 71 67 64 65 67 69 70 70 68 66 65 64 64 64 63 63 61 59 58 57 56 55 54 53 53 52 51 49 49 51 53 54 54 52 50 50 51 50 50 50 49 49 49 49 49 51 52 53 54 54 54 53 51 47 42 40 39 39 38 37 36 35 35 35 34 35 35 35 35 34 34 34 33 33 32 32 31 31 32 32 34 35 36 37 37
74 71 69 69 70 70 69 69 69 68 67 66 65 64 65 64 62 61 60 60 60 58 58 58 57 56 54 51 50 51 54 56 56 54 52 51 51 51 51 51 50 50 50 49 49 50 51 52 53 54 55 55 53 51 47 43 40 39 38 37 35 35 35 35 35 36 37 38 38 38 38 37 36 35 34 33 32 31 31 31 32 33 35 36 37 38
75 72 73 74 73 73 70 67 66 66 67 67 66 65 65 65 65 64 63 63 62 61 61 60 58 57 54 51 51 53 56 57 56 54 53 52 52 53 52 52 51 51 50 49 49 50 52 52 53 54 56 55 53 51 48 44 41 40 39 37 35 35 35 34 35 36 39 41 42 42 41 40 39 36 34 33 32 31 31 32 32 32 32 34 36 38
76 77 79 78 74 72 72 71 69 68 69 70 70 69 69 69 69 67 66 65 64 62 62 60 58 57 54 51 53 55 56 57 57 56 55 54 54 54 53 53 53 52 51 49 50 51 52 52 54 55 56 56 54 50 48 45 43 41 39 37 34 35 35 35 35 36 38 41 44 45 45 44 41 39 36 34 33 33 33 33 32 32 32 33 35 37
77 80 82 78 74 73 73 75 75 73 72 72 72 71 71 72 70 68 68 67 65 63 62 61 58 57 56 54 54 55 56 58 57 57 58 56 55 55 54 54 54 53 51 51 51 52 52 53 54 55 56 56 54 50 48 45 44 43 40 37 35 35 36 35 35 37 38 39 42 44 46 46 44 41 39 37 36 36 36 35 34 34 34 34 36 37
78 80 81 78 75 74 74 75 76 74 73 72 72 71 72 72 71 70 69 68 67 65 63 61 57 56 58 57 56 56 57 59 58 59 60 58 57 57 56 55 54 54 53 52 52 52 52 54 55 56 56 56 54 50 48 46 45 44 42 38 36 36 36 36 36 37 38 40 40 41 43 46 47 45 43 40 39 39 39 38 38 37 37 37 38 39
79 79 80 79 77 75 74 73 73 72 71 71 71 72 72 72 72 71 71 70 68 64 61 60 57 56 59 59 58 59 58 59 59 60 61 60 58 58 57 56 55 54 54 54 53 52 53 54 55 56 57 56 55 52 48 47 46 44 42 39 36 36 37 37 38 38 39 41 41 41 42 43 46 47 47 45 43 41 41 40 40 40 40 40 41 41
79 80 80 80 79 77 76 75 74 73 71 70 71 73 74 74 73 72 72 69 66 62 61 60 59 57 58 60 61 61 59 60 60 61 63 62 59 58 58 57 55 55 55 55 54 53 53 55 56 56 57 57 55 53 50 48 47 45 43 41 38 36 37 39 40 40 41 42 42 42 42 43 44 46 48 48 47 46 44 43 42 42 42 42 43 44
81 82 82 80 80 79 78 78 78 77 75 74 73 73 74 75 75 73 71 68 65 63 62 62 62 59 57 61 65 62 60 61 61 63 63 62 60 59 58 58 56 56 56 56 55 54 55 55 56 57 57 57 56 54 52 50 48 46 44 43 40 38 38 39 41 42 42 42 42 42 43 43 44 45 46 48 49 49 49 47 46 45 45 46 46 46
83 83 82 80 78 77 77 77 77 77 76 76 76 76 75 74 73 71 69 68 68 67 64 65 66 62 57 61 67 64 61 62 64 63 63 62 62 60 59 59 58 57 58 57 56 55 56 56 57 57 57 56 56 56 54 52 50 48 46 44 42 41 40 41 43 43 43 42 42 42 43 44 44 45 46 47 48 49 50 51 50 49 49 49 49 49
83 82 81 78 76 75 75 75 74 74 74 74 76 77 76 74 73 72 71 72 72 69 67 68 69 66 59 59 66 67 64 64 64 64 63 63 63 61 60 60 59 58 58 58 57 57 57 57 57 57 57 57 57 56 55 54 52 50 48 45 43 43 44 44 44 44 44 44 43 42 42 43 45 46 47 48 48 49 50 51 52 53 53 52 52 52
84 83 80 78 77 76 76 76 75 75 74 74 75 76 77 77 76 76 75 76 74 70 69 70 72 70 60 56 64 70 67 65 65 65 65 65 64 63 61 60 59 59 58 59 59 59 58 58 58 58 58 58 57 57 56 56 55 53 51 48 45 45 46 47 47 46 46 46 44 43 43 43 45 46 47 48 49 50 50 52 53 54 56 56 56 56
87 85 83 81 80 79 79 78 78 77 76 76 76 76 78 78 79 78 78 78 76 73 72 73 74 71 60 55 63 70 70 68 66 66 67 66 64 63 62 61 61 60 60 60 60 59 59 59 60 60 59 58 58 58 58 58 57 56 54 51 49 48 49 50 50 49 49 48 46 45 44 44 45 46 48 48 49 50 51 53 54 55 57 58 58 59
89 87 85 83 82 82 81 81 80 79 79 79 80 80 81 81 81 81 80 80 78 76 75 75 75 70 61 58 62 67 69 68 67 67 67 66 65 64 63 63 62 62 61 61 61 61 61 62 62 61 60 59 59 60 60 60 59 57 56 54 52 52 52 53 53 53 52 50 49 48 47 47 48 48 49 50 50 51 52 54 56 57 58 59 60 60
91 89 87 84 83 83 83 83 83 84 85 85 85 86 85 85 84 83 82 81 79 78 76 75 73 67 61 60 62 64 66 67 68 68 67 66 66 65 64 64 64 64 64 64 64 63 63 62 62 61 60 61 61 62 62 61 60 59 59 58 56 55 56 56 55 55 55 54 52 51 51 51 51 51 52 52 53 53 54 56 57 58 60 61 62 62
91 89 88 87 86 86 86 87 88 88 88 88 88 87 86 86 86 84 84 82 80 79 76 75 72 66 63 63 62 63 64 65 66 67 66 66 66 66 66 66 66 66 66 66 65 64 64 63 62 62 62 63 63 64 64 63 62 62 61 60 59 59 58 58 58 58 58 58 57 56 55 55 55 54 54 54 55 56 57 58 59 60 61 62 63 64
90 89 88 88 87 88 89 89 90 90 90 89 88 87 86 87 87 86 85 83 82 81 78 75 71 67 66 65 63 62 62 64 65 65 65 66 67 68 69 68 67 67 68 68 67 66 65 64 63 64 66 66 66 66 66 66 65 64 64 63 62 61 61 61 61 62 62 62 63 62 62 61 60 58 58 58 58 59 61 62 62 62 63 63 64 65
94 92 91 91 90 90 90 90 90 90 90 90 88 87 88 88 88 87 86 84 83 81 78 75 72 69 68 65 63 62 62 63 65 65 66 67 68 69 69 69 68 69 70 70 69 68 67 66 66 68 70 70 70 69 68 68 67 67 66 66 65 65 65 65 65 65 66 66 67 68 67 67 65 63 63 63 63 64 65 65 65 65 65 65 65 66
98 97 96 96 96 95 95 94 94 93 92 90 89 89 89 89 88 88 87 85 83 82 79 76 73 71 69 65 64 65 64 64 65 66 67 68 68 69 69 70 70 71 71 71 70 70 69 70 71 72 72 72 72 71 70 69 69 69 69 68 68 68 68 68 68 68 69 70 71 71 71 71 70 69 68 68 68 68 68 68 68 68 68 68 67 68
97 98 98 98 99 99 99 98 96 94 93 92 91 91 90 89 88 88 88 86 85 84 81 78 75 71 68 66 65 65 65 65 65 66 67 68 68 70 71 72 72 72 72 72 72 72 72 73 74 74 73 72 72 71 71 71 71 71 70 70 70 71 71 71 71 71 72 73 74 75 75 75 75 74 73 72 72 71 71 71 70 70 70 71 71 70
96 97 98 98 99 100 99 97 95 93 93 93 93 92 91 91 90 89 89 88 86 85 83 80 75 70 67 67 67 66 66 66 65 65 66 67 68 70 72 74 74 74 73 73 74 76 76 75 75 75 74 73 72 72 72 72 73 73 72 72 73 73 73 73 73 74 75 76 77 78 79 79 78 78 76 76 75 74 74 73 73 73 73 73 73 73
96 95 96 97 97 97 96 96 95 94 95 95 94 93 92 92 92 91 90 87 86 85 82 81 75 69 68 69 67 67 66 66 67 67 67 68 69 72 74 76 76 76 75 75 76 78 78 78 77 77 75 74 74 74 74 74 74 74 74 74 75 75 75 75 75 76 77 78 80 81 81 81 82 81 80 78 77 76 76 76 76 75 75 75 76 76
98 97 97 97 96 96 96 97 96 96 97 96 95 93 92 91 90 90 88 86 86 86 84 83 75 65 66 69 68 68 69 68 69 69 69 70 72 74 76 78 79 79 78 78 78 79 80 79 79 78 77 76 76 76 76 76 76 76 76 76 76 76 77 77 77 78 79 81 82 83 84 84 84 84 82 81 80 79 79 79 79 78 77 78 79 79
103 102 101 100 99 98 99 99 98 98 98 96 94 91 90 89 88 89 88 87 88 87 85 85 76 65 66 70 69 70 71 70 70 71 72 74 75 77 79 80 80 81 80 80 80 80 80 80 80 79 79 79 79 79 79 78 77 77 77 77 77 78 79 80 81 81 82 83 84 85 86 86 86 86 85 84 84 84 84 83 82 81 81 82 82 82
107 106 105 104 103 102 102 101 99 98 96 93 91 90 89 90 90 90 90 90 90 88 86 87 80 70 69 71 71 72 73 72 74 75 77 79 80 81 82 81 81 81 80 80 81 82 82 82 82 82 82 82 83 83 82 80 79 78 78 79 79 80 82 83 84 84 84 85 86 87 88 88 88 88 88 88 88 88 88 87 86 86 85 85 84 84
111 111 110 109 108 106 103 101 97 95 94 93 92 92 92 93 94 94 94 95 93 89 88 89 83 75 73 74 74 75 76 77 79 80 80 81 82 82 83 82 81 82 82 82 84 85 85 85 85 84 84 84 84 84 83 81 80 80 80 81 82 83 84 85 86 87 87 87 88 89 90 90 90 90 91 91 91 92 92 91 90 89 89 88 87 88
113 114 113 111 110 107 103 100 99 98 99 99 98 98 98 99 99 100 101 100 96 92 92 90 85 79 76 77 78 78 79 80 81 83 83 83 83 83 83 84 84 84 85 85 86 87 88 88 87 86 86 86 85 84 83 82 82 82 82 83 83 84 85 87 88 89 90 91 92 92 93 93 93 93 93 93 93 94 93 93 92 91 91 90 90 89
114 114 113 111 109 106 103 102 102 102 102 102 101 101 101 102 103 103 103 99 95 96 94 89 85 83 81 81 83 82 83 84 84 85 86 85 85 85 85 86 86 86 88 89 89 90 91 91 90 88 88 88 87 86 85 85 85 86 86 87 86 87 88 90 91 92 93 94 95 95 96 96 96 96 95 95 94 94 93 93 92 92 92 92 91 91
114 114 112 111 109 107 105 105 106 105 104 103 103 103 103 103 104 104 102 98 97 98 95 89 89 90 87 85 87 86 87 88 86 86 87 86 86 87 88 88 89 89 90 92 93 92 92 93 92 90 89 89 88 88 88 88 88 89 89 89 90 90 91 93 94 95 96 97 97 98 98 98 98 97 97 96 95 94 93 94 94 94 94 94 93 93
115 113 112 111 110 108 108 108 108 107 106 106 106 106 106 106 106 106 103 100 99 101 99 95 96 96 91 89 89 88 89 90 89 89 89 89 89 90 90 91 91 93 94 94 95 95 94 94 94 93 91 90 90 90 90 90 91 91 91 92 92 94 95 96 97 98 99 99 99 100 99 99 99 98 97 96 95 95 95 96 96 96 96 95 95 94
115 113 112 113 112 110 109 110 110 110 109 109 108 109 109 108 107 105 103 101 101 103 103 101 101 98 93 91 91 90 90 91 92 92 92 91 92 92 92 92 93 95 97 97 97 97 96 95 94 94 93 92 92 91 91 92 93 93 94 95 96 97 98 99 100 101 101 101 101 100 100 100 99 99 99 98 98 98 98 98 97 97 97 96 96 97
115 113 113 114 113 111 109 110 111 111 112 113 111 110 108 107 106 105 104 104 105 107 107 106 105 99 93 92 94 94 93 93 93 93 93 94 94 94 94 93 94 95 97 98 98 98 98 97 96 95 95 94 94 93 93 94 95 96 97 98 99 100 101 102 102 102 102 102 101 101 101 101 101 101 100 100 100 100 99 99 98 98 98 98 99 99
115 114 113 114 114 112 109 111 113 114 116 115 111 106 104 105 106 107 107 107 108 109 109 108 105 100 95 95 96 95 94 95 94 95 96 97 97 97 97 96 96 97 97 98 98 98 98 99 98 97 97 96 96 96 96 97 98 99 100 100 101 102 103 103 103 103 103 103 103 103 102 102 102 102 102 102 101 100 100 99 99 100 100 101 101 101
115 115 114 114 115 113 110 112 115 118 118 114 106 102 103 106 108 110 110 109 108 109 109 108 105 101 98 97 96 95 96 98 98 98 99 99 99 99 99 98 98 98 98 99 99 99 100 100 101 100 100 100 99 99 100 100 101 101 102 102 103 103 104 104 104 104 104 104 104 104 104 103 103 103 103 102 101 101 101 102 102 103 103 103 102 102
115 115 115 116 116 114 113 114 118 119 117 110 104 103 106 109 110 111 110 109 108 108 109 108 106 103 100 99 98 99 99 100 101 101 102 102 101 101 100 101 100 100 101 101 101 101 102 102 103 103 103 102 102 102 102 102 102 103 103 103 104 104 104 104 104 104 104 104 105 105 104 104 103 103 103 103 103 104 104 104 104 104 104 104 104 104
116 116 117 117 117 117 116 117 119 119 115 109 106 106 107 109 110 111 112 110 108 108 109 109 107 104 102 101 101 102 103 103 103 103 103 103 103 103 102 103 103 103 103 103 103 103 104 104 104 104 104 103 103 103 103 103 103 103 103 103 104 104 104 104 104 104 104 105 105 105 105 105 105 105 106 106 106 106 106 106 106 107 107 107 108 109
117 118 119 119 119 119 118 119 120 120 117 113 109 106 107 109 111 113 115 113 110 109 110 110 108 106 104 104 105 106 107 107 105 104 104 105 105 105 104 104 105 105 105 105 105 105 105 105 105 105 104 103 103 103 103 103 104 104 104 104 104 104 104 104 104 104 105 106 106 107 107 108 108 108 108 108 108 109 109 110 110 111 111 111 111 112
118 119 119 119 120 120 120 121 122 123 120 114 108 107 108 111 113 116 118 116 111 109 111 111 110 108 107 108 109 110 110 109 106 105 106 107 107 107 107 106 106 106 106 106 106 106 106 106 106 105 105 104 104 104 104 105 105 105 105 105 105 105 105 105 105 106 106 107 108 109 109 110 110 110 110 110 111 112 113 113 114 114 115 115 115 115
118 119 119 120 121 122 122 124 125 125 120 114 110 110 112 114 115 118 120 118 112 110 111 112 112 111 111 111 112 113 113 111 108 107 108 109 109 108 108 108 108 107 107 107 106 106 107 107 107 107 106 106 105 105 105 105 106 106 106 106 106 106 106 106 107 107 108 109 110 111 111 112 112 113 113 114 114 115 116 116 117 118 119 119 119 119
116 117 119 120 121 122 123 124 125 125 121 115 113 114 115 117 119 121 121 117 112 110 112 114 115 114 113 113 114 114 114 113 111 110 110 109 109 109 109 109 109 108 108 108 108 108 108 108 108 108 108 107 107 106 106 107 107 108 108 108 109 109 109 109 109 110 111 112 113 114 115 116 117 118 118 118 118 119 119 120 120 121 122 123 123 123
115 116 117 118 120 121 122 123 124 123 119 116 114 116 119 121 122 122 121 117 114 112 114 116 117 116 115 115 116 116 115 115 113 112 112 111 110 110 109 109 109 109 109 109 109 110 110 110 110 110 110 110 109 109 110 110 111 112 112 113 113 112 113 113 113 114 115 116 118 119 120 122 123 123 123 123 123 123 122 122 123 123 123 123 123 122
114 115 116 117 118 119 120 122 124 123 119 115 114 117 121 123 122 121 120 118 117 116 115 117 118 117 116 115 116 116 116 116 115 114 113 113 112 111 111 111 111 111 111 112 112 112 112 113 113 113 113 113 114 114 114 115 116 117 117 118 118 118 118 119 119 121 121 123 124 125 126 126 127 127 126 126 125 124 122 122 122 121 121 120 120 120
117 117 117 116 117 118 119 121 123 121 118 116 116 119 121 122 122 121 120 118 117 117 116 116 117 117 117 116 116 116 116 116 115 115 114 114 113 113 113 113 113 113 114 114 114 115 115 115 116 117 117 118 118 118 119 120 121 122 123 124 124 125 125 125 126 126 126 126 127 127 127 126 126 125 125 124 123 121 120 119 119 118 118 118 118 117
123 122 121 119 118 119 120 120 120 119 117 117 118 121 122 121 121 122 120 119 118 117 116 116 116 116 116 116 116 116 117 117 117 116 116 116 115 115 115 115 116 116 116 117 117 118 118 119 120 121 122 123 123 124 125 126 127 128 129 129 129 129 129 128 127 126 125 125 124 123 123 122 121 121 120 119 119 118 117 116 116 116 116 116 116 116
125 124 124 124 123 124 123 122 121 119 118 117 118 120 122 122 122 122 121 121 120 118 117 117 116 116 116 116 117 117 118 118 119 119 119 119 119 120 120 120 120 120 121 121 121 122 123 124 125 126 127 128 129 130 130 130 130 130 130 130 129 128 126 125 123 121 120 119 118 117 117 116 116 116 116 116 115 115 115 115 115 115 115 116 116 116
125 125 126 126 127 128 127 126 125 123 121 120 120 121 122 123 123 123 123 123 122 122 121 120 119 119 119 119 119 119 120 121 122 122 123 123 123 124 124 124 125 125 125 126 126 126 127 127 128 128 129 130 130 130 130 129 129 127 126 125 124 122 120 119 117 115 114 114 114 114 114 114 114 114 114 114 115 115 115 115 115 115 115 115 116 117
123 124 125 126 128 128 128 128 127 126 125 125 124 124 125 125 125 126 126 126 126 126 126 125 125 124 124 124 124 123 124 124 125 125 126 127 127 127 127 127 127 127 128 128 128 128 128 127 127 126 126 125 125 125 125 124 124 123 122 120 119 117 115 114 113 112 111 111 112 113 114 114 114 114 114 114 114 115 115 115 115 115 114 114 115 116
118 120 122 124 126 127 127 127 127 126 126 126 126 127 128 128 129 129 129 130 130 130 130 130 130 130 130 130 130 130 130 130 130 129 130 130 130 130 130 129 128 128 127 127 127 126 126 125 125 124 123 122 121 121 120 120 120 120 120 119 118 117 116 115 114 113 112 112 112 113 114 115 115 115 115 115 116 116 117 117 118 118 118 118 119 120
115 116 118 119 121 122 123 123 123 124 125 125 126 126 127 128 129 130 130 130 130 130 130 130 130 130 130 131 131 131 131 131 131 131 130 130 130 130 129 129 129 128 128 127 126 126 125 124 124 123 122 121 121 120 120 119 120 120 120 120 120 120 119 118 117 116 116 116 116 116 117 117 118 119 119 120 120 121 122 123 123 124 123 123 124 125
114 114 115 116 118 118 117 118 119 121 122 122 122 123 124 125 125 126 126 126 126 126 127 126 126 126 127 127 127 127 127 127 128 128 128 127 127 127 127 127 126 126 126 126 126 125 125 124 124 123 122 122 121 121 121 121 121 121 121 121 121 121 121 121 120 119 119 119 119 120 120 120 121 121 122 123 123 123 124 124 125 126 126 126 126 127
115 115 116 116 117 117 116 117 118 118 118 118 118 119 120 121 122 122 123 123 123 123 124 124 124 124 123 123 123 123 123 123 123 123 123 123 123 123 123 122 122 122 122 122 122 123 123 123 123 123 122 122 122 122 122 122 122 122 122 122 122 123 123 123 122 121 121 121 121 122 122 122 123 123 124 124 125 125 125 125 124 125 126 127 128 128
Wind_Direction
231 233 234 236 238 237 237 237 237 239 241 244 247 249 251 252 253 254 254 255 256 256 255 256 262 267 269 270 270 270 271 272 275 280 283 285 286 287 287 288 289 291 292 294 298 301 303 305 307 310 313 315 316 316 314 309 303 300 298 298 298 299 301 304 306 306 307 309 309 310 311 311 311 310 310 311 311 312 312 313 314 314 315 316 316 317
232 234 235 237 237 237 238 239 240 240 241 244 247 250 250 250 251 254 254 255 256 255 255 258 264 267 267 268 269 270 271 273 277 280 282 283 284 285 285 287 288 288 290 294 297 298 301 303 305 309 311 313 314 314 312 307 302 297 296 295 295 296 300 303 306 307 308 309 310 311 311 312 312 311 312 311 311 311 311 313 315 315 316 317 318 320
232 233 235 236 237 237 238 241 242 242 242 243 245 248 249 249 251 253 254 254 255 255 256 259 263 265 265 266 269 271 272 274 278 280 280 281 282 283 284 285 285 287 290 292 294 297 299 301 304 307 309 311 313 313 310 306 301 296 294 293 293 293 297 301 304 307 308 309 310 311 311 312 313 313 313 311 310 310 310 312 313 313 315 317 319 321
231 232 234 235 236 237 238 240 242 242 242 242 244 246 248 249 251 252 253 254 255 256 257 259 261 262 263 265 269 271 273 275 277 279 279 279 280 281 282 282 284 286 288 290 292 295 297 300 303 305 306 308 311 311 308 304 300 296 294 293 292 292 295 299 302 304 306 308 310 310 311 312 313 314 313 311 308 306 307 308 309 310 312 315 318 321
230 231 232 233 234 236 238 240 241 242 243 243 244 246 248 249 250 252 253 254 255 256 256 257 258 260 263 266 269 271 273 274 276 278 278 277 278 280 280 281 283 284 286 288 290 292 295 299 302 303 304 306 309 308 305 302 298 295 294 293 291 291 293 297 300 301 303 305 307 308 309 310 311 312 312 309 306 304 305 306 306 307 309 313 317 319
230 230 231 232 234 237 239 240 241 242 243 244 245 246 248 250 251 252 253 253 254 254 254 255 257 260 265 267 269 271 272 274 275 276 276 276 277 278 279 280 281 283 285 287 288 292 295 298 300 302 303 305 306 306 303 299 297 295 293 292 291 290 291 294 296 298 301 303 304 305 306 308 310 311 311 309 305 303 304 305 306 307 309 313 316 318
229 231 232 233 236 238 239 239 240 241 242 243 245 246 247 249 250 251 251 252 253 252 253 255 258 262 266 268 270 271 272 273 274 274 273 273 275 277 278 279 280 282 284 286 288 292 295 297 299 300 302 303 303 303 300 297 295 294 292 291 291 290 289 290 291 293 297 300 302 302 303 305 307 308 309 309 306 303 302 303 306 307 310 312 314 316
228 231 233 234 236 237 237 237 238 240 241 242 244 245 246 247 249 250 250 251 250 250 254 258 260 262 267 270 270 270 271 272 272 271 270 272 274 276 276 277 279 281 283 285 288 291 293 295 297 299 300 300 300 300 297 294 292 292 290 290 291 291 288 287 287 290 294 298 299 301 302 302 303 305 306 308 307 305 303 303 304 307 309 311 312 313
226 229 231 233 235 235 236 236 238 239 240 241 243 245 246 247 248 248 249 249 249 252 256 259 261 262 266 268 269 270 270 270 269 268 269 271 273 273 274 276 278 279 281 283 286 290 292 294 296 297 298 298 297 296 294 292 290 289 289 289 291 291 288 286 286 288 292 296 297 299 300 300 301 302 303 304 305 305 304 304 305 306 307 308 310 311
226 228 230 231 232 234 235 236 238 240 241 242 243 245 247 248 248 248 248 250 251 254 257 259 261 262 263 265 268 269 269 268 267 267 268 270 271 272 273 275 276 278 280 283 286 289 291 293 295 296 296 295 294 293 292 290 288 288 288 289 290 291 289 286 286 288 292 295 295 296 297 298 299 299 300 301 301 302 303 304 304 304 305 306 308 310
228 229 230 231 233 234 236 238 240 242 243 244 245 246 247 248 248 248 249 251 253 255 258 260 261 261 261 262 266 268 267 265 266 266 267 269 270 271 272 273 275 278 281 283 286 288 290 292 293 293 293 293 292 290 289 287 287 287 287 288 290 290 289 287 287 289 292 293 294 295 295 295 295 296 297 298 299 300 301 302 302 302 303 304 306 307
229 230 232 233 235 237 238 240 241 242 243 245 246 246 247 247 247 248 250 252 254 256 257 259 259 260 260 259 262 267 266 265 265 266 267 267 268 269 270 272 275 278 280 282 285 287 289 290 290 291 290 290 289 287 286 285 286 286 286 288 290 290 289 288 288 289 291 293 293 294 293 292 292 292 293 295 297 299 300 301 300 300 301 302 303 305
231 232 233 234 235 237 238 240 241 242 243 244 246 246 247 248 248 249 251 253 255 255 255 256 257 260 260 257 261 267 267 265 264 264 265 266 267 268 271 273 275 277 279 281 284 286 287 288 288 288 287 286 285 284 284 284 285 286 286 287 289 289 288 288 289 290 291 293 293 293 292 291 290 290 291 292 294 296 298 299 299 299 300 300 301 302
231 233 234 235 236 237 238 240 241 242 242 243 244 245 246 247 248 250 251 253 254 254 255 256 258 261 261 258 261 264 264 263 262 261 263 266 268 270 271 273 275 277 279 281 283 285 286 286 286 285 284 283 283 282 282 283 284 284 286 288 289 288 288 288 290 290 291 293 293 293 292 292 292 292 292 292 293 295 297 298 298 298 298 299 299 300
231 232 234 235 236 237 238 239 240 240 241 242 243 244 246 248 249 251 252 253 254 255 256 257 259 260 259 256 256 256 257 261 262 263 264 266 268 270 271 273 275 277 279 281 283 285 285 284 282 281 281 281 281 281 281 282 283 284 286 288 288 287 287 288 289 289 290 292 292 293 293 293 293 294 294 295 296 297 297 297 297 296 296 296 297 298
232 234 235 235 236 237 237 238 239 239 241 242 243 245 247 249 250 251 252 253 253 254 254 255 256 257 255 253 252 251 253 259 263 266 267 267 268 269 271 273 275 278 280 282 284 284 283 281 280 280 280 279 279 279 280 281 282 284 286 287 287 287 288 289 289 290 291 292 293 294 293 293 292 293 295 296 297 297 296 296 295 295 295 295 295 296
232 233 235 236 236 237 238 239 240 240 241 243 244 246 248 249 250 251 251 252 253 253 254 255 255 255 253 252 251 250 251 256 260 264 267 269 270 272 273 275 277 280 282 283 283 282 280 279 279 279 279 278 278 280 281 283 284 286 287 288 289 290 291 292 293 293 294 295 295 295 294 293 293 293 295 296 296 296 295 294 294 295 295 295 295 295
232 232 233 234 235 236 237 238 240 241 242 243 244 246 247 248 249 250 251 251 252 253 253 253 253 252 251 251 250 249 250 253 256 261 265 269 271 273 275 277 280 282 282 282 282 281 280 280 279 279 279 280 282 284 285 286 288 289 291 292 293 294 294 294 295 295 296 296 296 295 294 294 294 295 295 295 295 296 295 294 294 295 295 296 296 295
233 234 234 235 236 236 237 238 239 240 242 243 244 245 246 247 249 250 250 250 251 252 251 251 251 251 251 250 249 250 251 252 255 258 263 267 270 273 276 278 279 280 280 280 280 280 279 279 279 280 282 284 285 287 288 289 290 291 292 293 294 294 293 293 293 294 294 294 294 293 293 293 294 294 294 294 295 295 295 294 294 295 295 296 297 296
234 235 236 237 238 238 239 240 241 242 243 244 244 245 246 247 248 249 250 250 250 251 251 251 251 251 250 249 249 250 252 253 254 258 262 266 270 273 274 275 276 276 276 277 278 277 276 277 278 280 281 283 284 285 286 288 289 290 290 291 291 290 290 290 291 291 291 291 291 291 291 291 292 292 293 294 294 294 294 294 294 294 295 296 297 297
233 234 235 237 238 239 240 241 242 242 243 244 244 244 245 246 246 247 248 249 250 250 251 250 250 250 249 249 249 251 252 254 256 259 262 264 267 270 272 273 273 274 274 275 275 274 274 276 277 278 279 280 281 282 284 285 286 286 287 287 287 287 287 288 288 289 289 289 289 289 289 290 290 291 292 292 293 293 293 293 293 294 295 296 297 297
232 233 234 235 237 238 239 240 240 241 241 242 243 243 244 245 246 247 248 250 250 251 251 251 250 248 249 250 250 251 253 255 257 258 260 263 266 268 269 270 270 271 271 272 272 273 274 275 276 277 278 279 280 280 281 282 283 283 284 284 285 285 286 286 286 286 287 287 287 287 288 289 289 290 291 291 291 292 292 293 293 294 295 296 297 297
231 232 233 233 234 236 237 238 238 239 240 241 242 243 244 245 247 248 249 250 250 250 251 251 249 246 248 250 250 251 253 254 257 259 261 263 265 266 267 267 268 268 269 269 269 271 272 274 275 276 277 278 278 279 279 280 281 282 282 283 283 283 284 284 284 284 284 284 285 286 287 288 288 289 290 291 291 292 292 292 293 294 294 295 296 296
230 231 232 232 233 234 235 237 237 238 240 241 242 244 245 246 247 249 249 249 250 250 251 251 249 246 247 249 250 252 253 255 258 260 262 264 265 266 266 266 266 266 267 267 268 269 270 271 272 274 275 275 276 276 276 277 279 280 281 281 281 282 282 282 282 282 282 283 284 285 286 287 288 289 290 291 291 292 292 293 293 293 294 295 296 296
231 232 232 233 233 234 235 236 238 240 242 243 244 245 246 247 248 248 249 248 249 249 250 251 250 246 246 249 252 254 256 258 260 262 263 265 266 266 266 265 264 265 266 267 267 268 268 269 270 271 271 272 273 274 275 277 278 279 279 279 279 280 280 281 281 281 282 283 284 284 285 287 288 289 290 291 292 292 293 293 294 294 295 295 295 296
232 233 233 233 234 235 236 238 240 241 243 243 243 244 245 245 245 246 246 246 246 247 249 250 250 249 248 250 254 257 259 261 262 263 264 264 264 264 264 264 264 265 265 266 266 267 268 268 269 270 270 271 272 274 275 276 277 277 277 277 278 279 279 280 281 282 282 283 283 284 285 286 288 289 290 291 292 293 293 294 295 295 295 296 296 296
233 234 234 235 236 237 238 239 240 240 241 242 242 243 243 244 245 245 246 246 248 249 250 252 253 253 253 256 257 258 260 261 261 263 263 263 264 263 264 264 264 264 264 264 265 266 267 267 268 269 270 272 273 275 276 277 277 277 276 276 277 278 279 280 281 282 282 283 283 284 285 286 287 288 289 290 291 292 293 294 294 295 295 295 295 295
233 234 235 236 237 237 238 239 239 240 242 243 244 244 245 246 247 248 249 250 251 252 253 255 256 255 255 257 258 258 259 260 261 262 263 263 264 264 264 264 263 263 264 264 265 265 266 267 268 269 270 272 273 274 275 276 276 276 276 276 276 277 277 278 279 280 281 282 282 284 285 286 287 288 289 290 291 292 292 293 293 293 294 294 294 294
234 234 235 236 237 237 237 238 239 240 241 243 244 245 245 246 248 249 250 251 252 253 254 254 255 255 255 257 259 260 261 261 261 261 261 261 261 261 262 262 263 264 264 265 265 266 267 269 270 270 271 272 273 273 274 274 274 275 275 276 276 276 277 277 278 278 279 281 282 283 285 286 287 288 289 289 290 290 291 291 292 292 292 293 293 293
234 235 235 236 237 237 238 239 240 241 242 243 244 245 246 246 248 250 251 253 254 256 256 256 256 257 258 259 260 261 261 261 261 260 260 260 259 259 260 262 263 264 264 265 266 267 267 269 270 271 271 272 272 273 274 274 274 275 275 276 276 276 277 277 278 279 280 281 282 284 285 286 287 288 288 289 289 290 290 291 291 292 292 292 292 292
235 235 236 237 237 237 238 240 241 241 242 243 244 245 246 248 249 251 253 254 255 256 257 257 257 257 258 259 259 259 259 260 261 261 261 261 261 261 261 262 262 263 264 265 266 267 268 268 269 270 271 271 272 272 273 273 274 274 275 276 276 277 277 278 279 280 281 282 283 284 286 286 287 287 288 288 289 289 290 290 291 291 291 291 291 292
236 236 237 237 238 238 238 240 241 242 242 243 243 245 247 250 251 253 254 254 254 255 256 256 257 257 257 257 258 258 260 261 262 263 263 264 264 263 263 263 263 263 264 265 266 267 268 268 268 269 270 270 271 271 272 272 273 274 274 275 276 277 277 278 279 280 281 283 284 284 285 286 286 287 287 288 289 289 289 290 290 290 290 291 291 291
237 238 238 239 239 239 239 240 242 242 243 243 244 246 249 251 252 252 252 253 253 254 255 256 257 257 256 256 258 260 262 262 263 263 264 264 264 264 264 264 264 265 265 266 267 268 269 269 269 269 269 269 270 270 271 271 272 273 274 275 276 277 278 279 280 281 282 283 284 284 285 285 286 286 287 288 288 288 289 289 289 289 290 290 291 291
238 238 239 240 241 240 240 241 242 243 244 244 245 246 248 249 250 251 252 253 254 255 256 257 257 258 258 258 259 260 260 261 262 263 263 264 264 265 266 266 267 267 268 268 269 269 269 270 270 270 270 271 271 271 272 272 273 274 275 276 277 278 279 279 280 281 282 283 284 284 285 285 286 286 287 287 287 288 288 289 289 289 290 290 290 290
238 239 240 241 241 241 241 241 242 244 245 245 245 246 247 248 250 251 252 253 254 256 257 258 258 258 258 259 259 259 259 260 261 262 264 265 265 266 267 268 268 269 269 269 269 270 270 271 271 272 272 273 273 274 274 275 275 276 277 277 278 278 279 280 281 281 282 282 283 283 284 284 285 285 286 286 287 287 288 288 289 289 289 289 290 290
238 239 240 240 241 242 242 242 243 245 245 245 245 246 247 249 250 252 252 253 253 255 256 257 258 258 258 259 259 260 259 260 260 261 263 264 266 267 267 268 269 269 270 270 271 271 272 272 273 273 274 274 275 275 276 276 277 277 278 278 278 279 279 280 280 281 281 282 282 283 283 284 284 285 285 286 286 287 287 287 288 288 288 289 289 289
237 238 239 240 241 242 242 243 244 245 245 245 245 246 248 249 250 252 252 252 252 254 256 257 258 258 259 259 259 259 259 259 260 261 263 264 265 266 267 268 269 270 271 271 272 273 273 274 274 275 275 275 276 276 277 277 277 277 278 278 278 278 279 280 280 281 281 282 282 283 283 283 284 284 285 285 286 286 286 287 287 288 288 288 288 288
238 239 240 241 242 243 243 244 244 245 245 245 246 247 248 249 250 251 252 252 252 254 256 257 258 258 259 259 260 260 261 261 261 262 263 264 265 266 267 268 269 270 271 272 273 274 274 275 275 275 276 276 276 277 277 277 277 278 278 278 278 279 279 280 280 281 281 282 282 283 283 284 284 284 284 285 285 285 286 286 287 287 287 287 287 287
240 240 241 242 243 244 244 245 245 246 246 246 247 248 248 249 250 251 252 253 253 254 256 257 258 258 259 260 261 261 262 262 263 264 264 266 266 267 268 269 269 270 271 272 272 273 274 274 275 275 276 276 277 277 277 277 278 278 278 278 279 279 280 280 281 281 282 282 282 283 283 283 284 284 284 284 284 285 285 285 285 285 286 286 285 285
241 242 243 244 245 245 246 247 247 248 248 248 248 249 250 250 251 251 253 254 254 256 257 258 259 259 260 260 261 262 263 264 264 265 265 267 267 268 269 269 270 270 271 271 272 272 273 274 274 275 275 276 276 276 277 277 277 278 278 278 279 279 280 280 281 281 281 282 282 282 283 283 283 283 284 284 284 284 284 284 284 284 284 285 285 285
241 242 243 244 246 247 248 248 249 249 249 250 250 250 251 252 252 253 254 255 255 256 257 258 259 260 261 262 262 263 264 264 265 265 266 266 267 268 269 269 270 270 270 271 271 272 272 273 273 274 274 275 275 276 276 277 277 277 278 278 279 279 279 280 280 281 281 281 282 282 282 282 283 283 283 283 283 283 283 283 283 283 283 283 284 284
242 242 243 244 246 247 248 249 250 250 250 250 251 252 252 253 254 254 255 256 256 256 257 258 259 261 262 263 263 264 265 265 266 266 266 267 267 268 268 269 269 269 270 270 271 271 272 272 273 273 274 274 275 275 276 276 277 277 277 278 278 279 279 279 280 280 281 281 282 282 282 282 282 283 283 283 282 282 282 282 282 282 282 282 282 282
242 243 243 244 245 247 248 249 250 251 251 251 251 252 253 254 255 255 256 256 257 257 258 258 259 260 261 263 264 264 265 265 266 266 267 267 268 268 268 269 269 269 270 270 271 271 272 272 273 273 274 274 275 275 275 276 276 277 277 278 278 279 279 280 280 280 281 281 281 282 282 282 282 282 282 282 281 281 281 281 281 281 281 281 281 281
242 243 244 245 246 247 248 249 251 252 252 252 252 253 253 254 256 256 257 257 257 258 258 259 260 260 261 262 263 264 265 266 266 267 267 267 268 268 269 269 269 270 270 271 271 272 272 273 273 274 274 274 275 275 276 276 277 277 278 278 279 279 280 280 280 281 281 281 281 281 281 281 280 280 280 280 280 280 280 280 280 280 281 281 281 281
243 244 245 246 246 247 248 249 250 251 252 253 254 255 255 256 256 257 258 258 258 258 259 259 260 261 261 262 263 264 265 266 266 267 267 268 268 269 269 270 270 271 271 272 272 273 273 274 274 275 275 276 276 277 277 277 278 278 279 279 279 280 280 280 280 280 280 280 279 279 279 279 279 279 279 279 279 280 280 280 280 280 280 281 281 281
243 244 246 247 247 248 249 250 251 252 253 254 255 256 257 257 258 258 259 259 259 259 259 259 260 261 261 262 263 264 265 266 267 267 268 269 269 270 270 271 272 272 273 273 274 274 275 276 276 277 278 278 278 279 279 279 279 279 279 279 280 280 280 280 279 279 279 278 278 278 277 277 277 277 278 278 279 279 280 280 280 280 281 281 281 281
245 245 246 247 248 249 250 250 251 252 253 254 255 256 257 258 259 259 260 260 261 261 261 261 261 261 262 262 263 264 265 266 267 268 269 270 270 271 272 272 273 273 274 274 275 275 276 276 277 277 277 277 278 278 278 278 279 279 279 278 278 278 278 278 277 277 277 277 277 277 277 277 277 277 278 278 279 279 280 280 280 280 280 280 279 279
246 247 247 247 248 249 250 251 251 253 253 254 255 256 257 258 259 260 261 261 262 262 263 263 264 264 264 264 264 265 265 266 266 267 268 268 269 270 271 271 272 272 273 273 274 274 274 275 275 275 275 275 275 275 275 276 276 276 276 276 276 275 275 275 275 275 274 274 275 275 275 275 276 276 276 276 277 277 277 277 277 277 277 277 277 277
248 248 249 249 250 250 251 252 252 253 253 254 255 256 256 258 259 260 261 262 263 263 264 265 265 265 266 266 266 266 267 267 267 267 267 268 268 269 269 270 271 271 272 272 272 272 273 273 273 273 273 273 273 273 273 273 273 273 273 273 273 273 273 273 272 272 272 272 272 273 273 273 273 273 273 273 273 274 274 275 275 275 275 276 276 276
249 250 250 251 252 252 252 253 253 254 254 254 255 256 257 258 259 260 261 262 263 263 264 265 266 266 267 267 268 268 269 269 269 270 270 270 270 270 270 271 271 271 272 272 272 272 272 272 271 271 271 271 271 271 272 272 272 272 272 272 272 272 272 272 272 272 272 271 271 271 271 272 272 272 272 272 272 272 273 273 274 275 275 275 275 276
249 250 250 251 252 253 253 254 255 255 256 257 257 258 258 259 260 261 262 263 263 264 265 266 266 267 267 268 268 269 269 270 270 271 271 271 272 272 272 272 272 272 272 272 272 272 272 272 272 272 272 271 271 271 271 272 272 272 272 272 272 272 272 272 272 272 272 271 271 271 271 271 271 271 272 272 272 272 272 273 273 274 275 276 276 276
Height
10729 10734 10742 10746 10746 10745 10745 10746 10749 10752 10756 10760 10764 10767 10770 10772 10773 10775 10779 10780 10782 10784 10785 10786 10788 10790 10791 10792 10794 10795 10795 10794 10795 10798 10799 10799 10798 10797 10798 10798 10799 10799 10799 10799 10799 10799 10797 10796 10795 10795 10795 10794 10793 10793 10792 10790 10789 10786 10785 10783 10782 10781 10780 10779 10778 10776 10775 10774 10773 10772 10772 10770 10769 10768 10766 10765 10764 10762 10760 10759 10757 10755 10753 10751 10750 10749
10725 10732 10737 10736 10734 10735 10739 10743 10748 10752 10754 10757 10761 10763 10765 10766 10768 10770 10773 10774 10777 10779 10780 10782 10784 10785 10787 10789 10790 10791 10790 10789 10792 10794 10795 10795 10794 10793 10793 10795 10795 10795 10795 10796 10796 10794 10794 10793 10792 10792 10791 10791 10790 10789 10788 10787 10786 10784 10783 10781 10780 10779 10778 10777 10775 10773 10772 10770 10769 10768 10767 10766 10765 10764 10763 10762 10760 10759 10757 10756 10754 10752 10749 10747 10746 10745
10722 10728 10726 10724 10726 10731 10737 10742 10746 10749 10750 10753 10756 10758 10759 10760 10761 10764 10767 10769 10771 10775 10776 10779 10781 10780 10783 10786 10786 10786 10785 10785 10788 10789 10790 10790 10790 10789 10790 10791 10791 10790 10792 10793 10792 10791 10790 10789 10789 10789 10788 10787 10787 10786 10784 10783 10782 10781 10780 10779 10778 10777 10776 10775 10773 10771 10769 10766 10765 10764 10763 10762 10761 10761 10760 10759 10757 10756 10754 10753 10751 10750 10748 10746 10744 10742
10717 10718 10713 10715 10722 10727 10733 10737 10740 10743 10744 10747 10749 10751 10752 10753 10755 10759 10762 10764 10767 10771 10773 10775 10777 10776 10778 10782 10781 10781 10782 10782 10784 10784 10784 10785 10785 10785 10786 10786 10787 10787 10788 10789 10788 10787 10786 10786 10786 10785 10784 10783 10784 10783 10781 10779 10778 10777 10777 10776 10776 10774 10774 10773 10771 10769 10766 10764 10761 10759 10758 10758 10757 10757 10756 10755 10754 10753 10752 10751 10749 10748 10747 10745 10743 10741
10707 10705 10704 10711 10718 10722 10728 10731 10734 10737 10738 10740 10742 10745 10746 10747 10751 10755 10757 10760 10763 10766 10769 10770 10773 10772 10773 10777 10777 10778 10778 10777 10779 10779 10778 10779 10780 10780 10782 10782 10783 10783 10784 10784 10783 10783 10783 10783 10782 10781 10780 10780 10780 10780 10778 10776 10775 10773 10773 10773 10772 10771 10771 10770 10768 10766 10764 10762 10759 10756 10754 10753 10753 10753 10752 10751 10750 10749 10748 10747 10746 10745 10744 10743 10741 10739
10698 10698 10702 10710 10715 10719 10724 10726 10728 10731 10732 10734 10737 10739 10741 10743 10747 10750 10752 10755 10757 10761 10764 10764 10769 10770 10768 10771 10773 10774 10775 10774 10775 10774 10771 10773 10775 10776 10777 10778 10778 10778 10779 10778 10778 10779 10779 10778 10777 10776 10775 10775 10776 10776 10775 10773 10771 10770 10770 10769 10769 10768 10767 10766 10765 10763 10761 10759 10757 10755 10752 10749 10748 10748 10748 10747 10746 10744 10743 10742 10741 10741 10740 10739 10737 10735
10692 10695 10700 10706 10710 10714 10718 10721 10722 10725 10727 10730 10732 10734 10735 10737 10740 10743 10746 10749 10753 10757 10758 10759 10765 10767 10763 10765 10767 10768 10771 10770 10770 10769 10766 10767 10770 10771 10772 10773 10773 10773 10772 10772 10773 10774 10774 10773 10772 10772 10771 10771 10771 10772 10771 10769 10768 10767 10766 10766 10766 10765 10764 10763 10761 10759 10758 10756 10754 10752 10750 10747 10745 10743 10742 10742 10741 10740 10738 10738 10737 10736 10735 10734 10732 10730
10689 10692 10695 10700 10703 10706 10711 10714 10715 10717 10720 10723 10725 10726 10728 10731 10734 10737 10740 10744 10748 10751 10753 10755 10759 10763 10762 10760 10759 10762 10766 10766 10765 10762 10760 10762 10766 10768 10766 10767 10769 10768 10767 10766 10768 10770 10770 10768 10768 10768 10767 10766 10766 10766 10766 10765 10764 10763 10763 10763 10763 10762 10761 10759 10757 10756 10754 10753 10751 10749 10747 10745 10743 10740 10738 10736 10735 10734 10733 10732 10732 10731 10730 10729 10727 10725
10681 10682 10686 10690 10694 10698 10703 10704 10706 10708 10712 10716 10717 10718 10722 10724 10728 10732 10735 10739 10743 10746 10749 10750 10751 10758 10761 10754 10750 10756 10761 10761 10759 10756 10755 10758 10761 10762 10762 10762 10764 10763 10762 10762 10764 10765 10765 10764 10763 10763 10762 10761 10761 10760 10760 10759 10759 10759 10759 10759 10759 10758 10757 10755 10753 10752 10750 10749 10747 10745 10743 10741 10740 10737 10735 10732 10730 10729 10727 10727 10727 10726 10724 10723 10722 10721
10672 10674 10678 10683 10687 10692 10695 10696 10700 10703 10707 10710 10711 10713 10716 10720 10724 10727 10730 10733 10735 10740 10745 10745 10744 10752 10759 10750 10742 10750 10756 10753 10751 10751 10753 10753 10754 10756 10757 10757 10758 10758 10756 10757 10759 10760 10759 10759 10758 10757 10756 10756 10755 10754 10753 10753 10753 10754 10755 10756 10756 10755 10753 10751 10749 10748 10747 10745 10743 10741 10740 10737 10736 10733 10731 10729 10727 10725 10723 10721 10721 10720 10719 10718 10717 10715
10668 10671 10674 10680 10684 10687 10689 10692 10696 10698 10702 10705 10706 10709 10711 10715 10718 10720 10724 10725 10728 10736 10740 10738 10736 10743 10755 10751 10738 10741 10748 10746 10745 10746 10748 10748 10748 10750 10751 10751 10752 10752 10752 10752 10753 10754 10754 10753 10752 10751 10751 10750 10749 10748 10747 10747 10748 10749 10750 10751 10752 10751 10749 10746 10745 10744 10742 10741 10739 10737 10736 10734 10731 10729 10727 10725 10723 10721 10719 10717 10716 10714 10713 10712 10711 10710
10664 10666 10671 10676 10679 10682 10684 10687 10690 10692 10695 10698 10699 10702 10703 10706 10709 10712 10716 10717 10722 10731 10733 10731 10728 10734 10751 10751 10736 10733 10738 10741 10741 10740 10740 10741 10742 10743 10744 10745 10746 10747 10747 10747 10747 10748 10748 10747 10746 10745 10745 10744 10743 10742 10741 10741 10742 10743 10744 10746 10747 10746 10744 10742 10740 10739 10738 10736 10735 10733 10731 10729 10727 10725 10722 10720 10718 10716 10715 10713 10711 10709 10708 10706 10705 10704
10658 10661 10665 10669 10672 10675 10677 10679 10682 10686 10689 10691 10693 10695 10695 10698 10700 10704 10708 10710 10716 10722 10723 10722 10720 10729 10747 10748 10735 10730 10729 10732 10736 10733 10732 10734 10735 10737 10738 10739 10740 10741 10741 10741 10742 10743 10743 10742 10740 10739 10739 10738 10737 10736 10735 10736 10736 10737 10738 10740 10742 10740 10738 10736 10735 10734 10733 10732 10730 10728 10726 10724 10722 10720 10718 10716 10714 10712 10710 10708 10706 10704 10703 10701 10699 10698
10648 10652 10657 10662 10665 10668 10670 10673 10676 10679 10680 10681 10683 10683 10684 10687 10691 10696 10700 10703 10708 10712 10716 10717 10717 10728 10742 10741 10736 10730 10719 10719 10727 10726 10726 10728 10729 10732 10732 10732 10733 10734 10735 10735 10736 10737 10737 10736 10734 10733 10732 10732 10731 10730 10730 10730 10730 10731 10732 10734 10735 10734 10732 10731 10730 10728 10727 10726 10724 10722 10720 10718 10716 10714 10712 10711 10709 10707 10705 10703 10701 10699 10698 10696 10695 10693
10640 10645 10651 10654 10657 10659 10661 10664 10666 10667 10667 10669 10672 10674 10677 10681 10685 10690 10693 10696 10701 10705 10709 10712 10716 10727 10734 10732 10731 10726 10714 10711 10714 10718 10722 10723 10724 10724 10724 10725 10726 10727 10728 10729 10730 10732 10731 10729 10727 10726 10725 10725 10725 10724 10723 10724 10724 10725 10726 10727 10728 10727 10726 10725 10724 10723 10721 10720 10718 10716 10714 10712 10710 10708 10707 10705 10704 10702 10700 10698 10696 10694 10693 10691 10689 10688
10637 10642 10646 10647 10648 10649 10650 10651 10653 10655 10657 10662 10666 10669 10673 10676 10679 10683 10685 10689 10693 10696 10702 10706 10713 10721 10723 10722 10724 10721 10715 10711 10708 10710 10713 10714 10716 10717 10717 10717 10718 10719 10720 10722 10723 10724 10723 10721 10719 10719 10718 10717 10717 10717 10717 10718 10719 10720 10721 10721 10721 10720 10719 10718 10716 10714 10713 10711 10710 10708 10706 10705 10704 10703 10702 10701 10699 10697 10695 10692 10690 10689 10687 10685 10683 10682
10629 10633 10635 10637 10639 10640 10640 10643 10645 10648 10652 10657 10661 10665 10668 10669 10670 10673 10677 10681 10684 10688 10695 10701 10709 10714 10712 10715 10718 10716 10715 10712 10707 10704 10703 10703 10706 10707 10708 10710 10711 10712 10713 10713 10714 10714 10713 10712 10711 10710 10709 10708 10709 10710 10711 10712 10713 10713 10713 10713 10712 10710 10708 10707 10705 10703 10701 10699 10698 10697 10696 10696 10697 10697 10696 10695 10693 10691 10689 10686 10684 10683 10681 10679 10677 10675
10617 10619 10621 10623 10625 10627 10629 10632 10635 10639 10644 10650 10656 10659 10660 10659 10661 10665 10669 10674 10677 10681 10689 10695 10701 10704 10704 10710 10711 10709 10711 10709 10705 10703 10699 10698 10697 10696 10698 10701 10703 10705 10704 10703 10704 10703 10702 10702 10701 10699 10698 10698 10700 10701 10702 10703 10703 10702 10702 10701 10699 10698 10697 10695 10694 10692 10691 10689 10687 10686 10685 10686 10688 10689 10688 10687 10686 10684 10681 10678 10677 10676 10674 10672 10671 10668
10607 10610 10612 10613 10614 10617 10619 10622 10627 10633 10638 10645 10649 10650 10649 10651 10655 10657 10660 10666 10669 10672 10680 10687 10692 10696 10700 10705 10704 10702 10705 10705 10703 10701 10698 10695 10692 10690 10691 10693 10695 10696 10696 10695 10695 10693 10692 10690 10689 10689 10688 10689 10690 10691 10692 10692 10692 10692 10691 10691 10690 10689 10688 10687 10686 10685 10683 10681 10679 10677 10677 10677 10678 10679 10679 10679 10678 10676 10673 10671 10669 10668 10666 10665 10663 10661
10599 10601 10604 10606 10607 10609 10612 10617 10625 10632 10635 10638 10640 10641 10642 10644 10648 10649 10650 10656 10660 10663 10671 10678 10685 10692 10696 10698 10697 10696 10697 10698 10698 10698 10697 10694 10690 10687 10686 10686 10687 10688 10689 10689 10688 10685 10683 10682 10683 10683 10683 10684 10684 10685 10685 10685 10685 10685 10685 10685 10684 10682 10682 10681 10680 10678 10676 10674 10672 10671 10670 10669 10670 10670 10671 10671 10670 10668 10666 10663 10662 10660 10658 10656 10654 10652
10589 10590 10595 10597 10597 10600 10607 10615 10623 10626 10624 10625 10627 10629 10631 10633 10637 10639 10641 10646 10651 10656 10663 10670 10681 10691 10690 10688 10691 10690 10690 10691 10693 10694 10693 10690 10687 10684 10682 10680 10680 10681 10682 10682 10679 10675 10675 10676 10677 10678 10679 10680 10681 10681 10681 10680 10680 10680 10680 10680 10678 10676 10675 10674 10673 10671 10669 10667 10665 10663 10662 10661 10661 10662 10663 10662 10661 10660 10658 10656 10655 10653 10650 10648 10645 10644
10580 10582 10585 10587 10590 10595 10601 10606 10609 10609 10609 10611 10614 10619 10623 10625 10629 10632 10636 10642 10646 10650 10658 10663 10676 10688 10683 10679 10684 10685 10683 10684 10685 10686 10686 10684 10683 10680 10677 10675 10675 10675 10676 10675 10672 10668 10667 10669 10670 10671 10673 10674 10676 10676 10676 10675 10675 10675 10674 10673 10672 10670 10668 10667 10667 10665 10663 10660 10657 10655 10654 10653 10652 10653 10654 10653 10653 10652 10649 10648 10646 10644 10642 10639 10636 10634
10566 10568 10571 10575 10581 10585 10587 10590 10594 10596 10598 10602 10607 10614 10618 10621 10625 10629 10634 10640 10639 10641 10649 10653 10667 10684 10677 10670 10676 10677 10676 10677 10677 10678 10679 10678 10677 10674 10671 10669 10668 10669 10669 10669 10667 10663 10662 10663 10663 10665 10667 10667 10668 10669 10669 10669 10669 10668 10668 10666 10665 10663 10661 10660 10660 10659 10656 10653 10650 10647 10646 10644 10643 10643 10644 10643 10643 10641 10640 10639 10637 10635 10633 10630 10627 10625
10552 10555 10560 10565 10570 10573 10575 10579 10583 10587 10591 10598 10605 10612 10614 10618 10623 10624 10627 10631 10628 10633 10642 10643 10658 10678 10671 10660 10666 10669 10668 10671 10671 10671 10670 10669 10668 10665 10663 10663 10660 10660 10662 10662 10661 10660 10657 10657 10658 10659 10661 10660 10660 10660 10661 10663 10663 10663 10662 10660 10658 10656 10653 10652 10651 10650 10648 10646 10643 10640 10637 10635 10634 10634 10634 10632 10631 10630 10629 10628 10627 10625 10624 10621 10618 10615
10542 10545 10551 10555 10558 10562 10567 10572 10579 10586 10593 10600 10607 10610 10611 10615 10616 10614 10616 10619 10618 10626 10632 10631 10647 10669 10663 10654 10659 10661 10662 10665 10664 10662 10661 10659 10658 10656 10654 10655 10654 10654 10655 10655 10654 10653 10651 10650 10650 10652 10653 10652 10652 10653 10654 10657 10658 10657 10656 10654 10651 10649 10646 10643 10641 10640 10639 10637 10635 10632 10629 10627 10626 10625 10624 10621 10620 10618 10617 10616 10616 10614 10613 10611 10608 10605
10530 10533 10540 10544 10548 10557 10566 10574 10584 10589 10590 10592 10596 10598 10599 10599 10598 10600 10600 10599 10606 10619 10621 10622 10640 10656 10654 10652 10656 10656 10656 10656 10653 10650 10650 10648 10648 10647 10646 10647 10648 10648 10648 10647 10645 10643 10642 10642 10642 10643 10644 10645 10646 10647 10649 10650 10651 10650 10648 10646 10643 10640 10637 10635 10632 10630 10629 10628 10625 10622 10620 10619 10618 10616 10614 10612 10609 10607 10605 10605 10604 10602 10600 10599 10597 10594
10519 10525 10533 10538 10546 10559 10569 10574 10577 10576 10572 10575 10580 10582 10583 10583 10584 10585 10584 10589 10606 10614 10613 10622 10637 10646 10649 10649 10650 10649 10646 10643 10641 10639 10638 10639 10639 10640 10640 10639 10640 10639 10637 10636 10635 10633 10633 10633 10635 10636 10637 10638 10640 10641 10642 10643 10642 10640 10639 10637 10635 10633 10629 10626 10623 10620 10618 10617 10615 10613 10611 10610 10610 10608 10606 10604 10601 10599 10596 10595 10593 10592 10589 10588 10586 10584
10510 10518 10528 10535 10544 10556 10563 10562 10561 10562 10562 10566 10571 10573 10574 10575 10576 10576 10580 10595 10608 10604 10608 10627 10631 10632 10642 10640 10634 10636 10634 10630 10632 10630 10629 10632 10632 10631 10630 10629 10629 10628 10626 10624 10624 10623 10623 10624 10628 10631 10632 10633 10635 10635 10635 10634 10632 10629 10628 10627 10626 10625 10621 10618 10615 10612 10610 10608 10606 10604 10603 10601 10600 10599 10597 10595 10593 10591 10589 10586 10584 10582 10579 10577 10576 10574
10503 10512 10523 10529 10535 10546 10550 10548 10549 10553 10555 10557 10560 10562 10564 10564 10565 10569 10578 10592 10596 10591 10605 10621 10613 10615 10634 10631 10621 10624 10623 10619 10623 10621 10620 10623 10622 10620 10618 10617 10618 10619 10617 10614 10613 10614 10615 10616 10620 10624 10626 10626 10626 10626 10625 10624 10622 10620 10618 10617 10616 10614 10611 10608 10606 10604 10602 10600 10597 10595 10594 10593 10592 10590 10588 10586 10585 10582 10580 10577 10574 10572 10569 10567 10565 10563
10494 10505 10516 10519 10525 10535 10538 10537 10540 10544 10546 10547 10549 10551 10552 10553 10556 10563 10574 10585 10587 10585 10596 10605 10598 10606 10626 10623 10613 10612 10609 10606 10609 10608 10607 10609 10609 10609 10610 10611 10612 10610 10606 10605 10604 10605 10608 10610 10611 10614 10616 10616 10616 10615 10614 10613 10611 10610 10608 10607 10605 10602 10600 10597 10595 10594 10592 10591 10589 10587 10586 10585 10583 10581 10579 10577 10575 10573 10570 10567 10564 10562 10559 10556 10554 10552
10487 10498 10507 10509 10513 10523 10528 10528 10531 10534 10535 10537 10538 10539 10542 10547 10554 10563 10573 10580 10579 10575 10581 10585 10584 10600 10618 10611 10599 10598 10596 10593 10594 10595 10594 10594 10596 10599 10602 10605 10606 10601 10596 10596 10596 10596 10598 10601 10603 10603 10604 10605 10605 10605 10604 10602 10600 10598 10597 10596 10594 10590 10588 10585 10584 10583 10582 10581 10580 10579 10577 10575 10572 10570 10568 10566 10565 10562 10560 10557 10554 10551 10549 10546 10544 10542
10480 10489 10497 10498 10500 10513 10524 10521 10519 10522 10521 10520 10525 10534 10541 10548 10555 10562 10566 10566 10562 10561 10565 10567 10572 10593 10607 10594 10581 10585 10587 10584 10585 10585 10583 10582 10583 10586 10590 10594 10595 10591 10587 10587 10588 10588 10588 10590 10592 10593 10593 10594 10594 10594 10593 10592 10590 10588 10586 10585 10583 10580 10577 10575 10574 10573 10572 10572 10570 10569 10567 10564 10562 10559 10556 10555 10553 10551 10549 10546 10544 10541 10539 10536 10534 10531
10473 10480 10488 10488 10489 10504 10515 10510 10506 10505 10499 10503 10525 10542 10545 10546 10548 10548 10546 10547 10549 10549 10551 10554 10563 10581 10588 10578 10575 10582 10580 10574 10574 10573 10569 10569 10570 10571 10576 10581 10581 10580 10579 10579 10580 10580 10579 10578 10579 10580 10582 10582 10583 10583 10582 10581 10580 10578 10576 10575 10573 10571 10568 10566 10565 10564 10563 10561 10559 10558 10556 10553 10551 10548 10545 10544 10542 10540 10538 10535 10533 10530 10528 10526 10523 10520
10465 10472 10477 10477 10480 10493 10502 10499 10493 10483 10480 10504 10535 10543 10536 10533 10533 10529 10529 10536 10540 10539 10539 10545 10555 10566 10571 10571 10572 10573 10566 10560 10560 10559 10557 10558 10560 10561 10564 10567 10569 10569 10569 10569 10569 10569 10568 10567 10566 10566 10568 10569 10571 10571 10571 10570 10569 10568 10567 10565 10563 10561 10558 10556 10556 10555 10553 10550 10547 10546 10543 10541 10540 10537 10535 10533 10532 10529 10527 10523 10521 10519 10516 10514 10512 10509
10456 10461 10464 10466 10469 10477 10485 10485 10474 10466 10481 10513 10529 10525 10522 10522 10519 10515 10519 10528 10532 10531 10531 10535 10543 10552 10558 10559 10558 10556 10553 10551 10550 10549 10549 10549 10550 10553 10553 10554 10556 10557 10557 10556 10556 10556 10556 10555 10554 10554 10556 10557 10558 10559 10558 10558 10557 10556 10555 10554 10551 10549 10547 10546 10545 10544 10542 10539 10536 10534 10532 10531 10529 10526 10524 10522 10520 10518 10515 10512 10510 10507 10504 10503 10500 10497
10445 10448 10450 10453 10456 10461 10468 10469 10463 10466 10486 10503 10507 10510 10516 10514 10508 10506 10509 10516 10522 10522 10520 10522 10529 10539 10545 10545 10542 10540 10540 10540 10539 10541 10542 10540 10541 10542 10542 10543 10543 10543 10543 10543 10543 10544 10543 10542 10541 10541 10543 10545 10546 10546 10546 10545 10544 10543 10542 10540 10539 10536 10535 10535 10534 10533 10530 10527 10525 10523 10522 10520 10519 10516 10514 10511 10509 10506 10503 10500 10497 10494 10492 10491 10488 10484
10434 10435 10438 10441 10444 10449 10455 10457 10457 10460 10470 10484 10496 10507 10510 10503 10498 10494 10490 10499 10513 10514 10510 10512 10520 10526 10530 10530 10526 10523 10523 10525 10530 10536 10536 10531 10530 10531 10531 10533 10532 10531 10532 10532 10531 10531 10530 10529 10529 10528 10530 10533 10533 10533 10533 10531 10530 10529 10527 10526 10525 10524 10523 10523 10522 10520 10518 10515 10513 10511 10509 10508 10507 10505 10502 10500 10497 10494 10491 10487 10485 10482 10479 10477 10475 10471
10426 10428 10431 10432 10434 10440 10442 10443 10446 10445 10456 10480 10496 10499 10495 10488 10485 10480 10473 10485 10507 10509 10502 10503 10508 10512 10515 10514 10509 10507 10508 10513 10523 10529 10524 10517 10518 10522 10522 10522 10522 10522 10522 10521 10520 10519 10517 10516 10516 10515 10516 10519 10520 10519 10519 10517 10516 10515 10513 10512 10511 10511 10512 10511 10510 10508 10506 10503 10500 10497 10495 10494 10493 10491 10489 10487 10484 10482 10479 10476 10472 10469 10467 10465 10463 10461
10418 10421 10424 10422 10423 10429 10429 10431 10435 10438 10455 10478 10485 10482 10479 10474 10473 10468 10460 10474 10500 10503 10494 10493 10495 10498 10501 10498 10495 10495 10495 10501 10513 10516 10509 10505 10508 10511 10511 10511 10511 10511 10511 10510 10509 10507 10505 10504 10503 10503 10503 10504 10505 10505 10504 10502 10501 10500 10499 10498 10497 10498 10499 10498 10496 10495 10493 10490 10486 10483 10481 10479 10478 10477 10475 10473 10471 10468 10466 10463 10460 10456 10453 10450 10449 10447
10411 10413 10415 10413 10414 10420 10421 10422 10426 10433 10451 10467 10469 10468 10467 10460 10458 10455 10452 10471 10495 10493 10484 10483 10481 10482 10487 10485 10483 10485 10485 10490 10499 10499 10496 10497 10498 10497 10498 10499 10499 10499 10498 10498 10497 10495 10494 10492 10491 10491 10491 10491 10491 10491 10490 10489 10487 10486 10485 10484 10484 10485 10485 10484 10483 10482 10479 10476 10473 10469 10466 10464 10462 10461 10460 10458 10457 10455 10452 10449 10446 10442 10439 10435 10433 10431
10401 10403 10404 10405 10407 10410 10411 10412 10416 10425 10442 10453 10454 10455 10452 10443 10442 10447 10454 10471 10480 10474 10472 10472 10467 10469 10474 10473 10472 10475 10475 10478 10483 10484 10485 10486 10485 10485 10487 10486 10486 10486 10485 10484 10484 10483 10482 10481 10479 10478 10478 10478 10478 10478 10477 10475 10473 10472 10471 10471 10471 10471 10471 10471 10470 10468 10465 10462 10459 10455 10452 10449 10447 10446 10444 10442 10441 10440 10438 10433 10429 10427 10425 10421 10418 10416
10390 10392 10393 10396 10398 10400 10401 10402 10402 10411 10431 10443 10441 10439 10436 10429 10430 10441 10451 10456 10456 10458 10463 10462 10458 10460 10462 10460 10460 10462 10463 10465 10468 10469 10470 10472 10472 10473 10473 10472 10473 10473 10472 10471 10471 10470 10470 10469 10467 10466 10465 10465 10465 10464 10463 10461 10459 10457 10456 10456 10456 10456 10456 10456 10455 10454 10451 10448 10444 10441 10437 10434 10432 10429 10427 10425 10423 10423 10423 10418 10413 10411 10409 10406 10403 10401
10378 10378 10380 10386 10390 10391 10391 10389 10389 10401 10422 10430 10425 10422 10421 10418 10421 10431 10436 10438 10441 10447 10450 10449 10450 10451 10450 10449 10449 10448 10449 10452 10453 10454 10455 10456 10457 10457 10457 10458 10458 10458 10458 10459 10457 10457 10457 10456 10454 10452 10451 10450 10450 10449 10448 10447 10444 10443 10441 10441 10441 10441 10441 10441 10440 10439 10437 10433 10428 10425 10421 10418 10416 10413 10410 10408 10406 10405 10405 10402 10397 10395 10392 10389 10387 10386
10364 10366 10371 10379 10382 10379 10378 10379 10384 10395 10407 10410 10408 10409 10410 10410 10414 10417 10419 10425 10431 10433 10435 10437 10438 10438 10438 10439 10438 10436 10436 10437 10437 10439 10441 10441 10441 10442 10442 10442 10443 10443 10444 10445 10443 10443 10443 10441 10440 10438 10435 10434 10433 10432 10432 10431 10430 10429 10426 10425 10425 10424 10425 10425 10424 10423 10421 10416 10412 10409 10405 10402 10400 10396 10393 10391 10388 10387 10387 10385 10382 10379 10376 10372 10370 10369
10355 10360 10363 10367 10368 10366 10366 10372 10378 10385 10391 10395 10397 10398 10397 10399 10403 10404 10405 10410 10415 10417 10421 10424 10424 10425 10426 10426 10426 10426 10426 10424 10423 10424 10425 10425 10426 10427 10426 10427 10428 10428 10429 10429 10428 10428 10426 10425 10424 10421 10418 10416 10414 10414 10414 10413 10413 10413 10411 10408 10407 10407 10408 10408 10407 10406 10404 10399 10396 10392 10389 10386 10384 10380 10377 10375 10372 10370 10370 10368 10365 10364 10361 10358 10354 10352
10346 10350 10351 10352 10353 10354 10358 10364 10371 10376 10381 10385 10387 10386 10384 10386 10389 10390 10391 10393 10396 10400 10404 10407 10410 10412 10413 10412 10413 10413 10413 10412 10411 10410 10409 10410 10410 10410 10411 10412 10412 10411 10412 10412 10412 10411 10410 10409 10408 10405 10402 10398 10395 10394 10394 10393 10393 10394 10393 10392 10391 10389 10390 10390 10390 10390 10387 10383 10380 10377 10373 10371 10370 10367 10364 10360 10356 10354 10353 10351 10349 10348 10347 10344 10339 10335
10334 10338 10340 10340 10341 10343 10348 10356 10362 10366 10369 10373 10374 10375 10374 10372 10373 10375 10376 10376 10378 10382 10385 10389 10393 10397 10398 10399 10400 10400 10399 10400 10399 10398 10397 10396 10395 10395 10396 10396 10395 10396 10396 10395 10395 10395 10394 10393 10392 10390 10388 10384 10380 10377 10376 10375 10375 10375 10375 10375 10375 10374 10373 10373 10373 10373 10371 10368 10365 10361 10358 10355 10355 10353 10351 10347 10343 10340 10337 10335 10332 10331 10331 10329 10324 10319
10321 10323 10325 10327 10330 10332 10337 10345 10351 10354 10357 10361 10361 10361 10360 10358 10358 10359 10360 10361 10364 10366 10369 10372 10375 10378 10381 10383 10384 10385 10386 10386 10386 10386 10386 10384 10382 10382 10381 10380 10380 10380 10380 10380 10380 10380 10379 10378 10377 10375 10373 10370 10367 10365 10362 10360 10359 10358 10358 10359 10359 10359 10359 10359 10358 10358 10357 10354 10350 10348 10344 10341 10340 10339 10337 10334 10331 10327 10323 10320 10316 10314 10314 10313 10307 10302
10307 10309 10313 10317 10319 10322 10327 10334 10338 10340 10342 10344 10345 10345 10345 10345 10345 10346 10347 10349 10352 10352 10353 10356 10358 10360 10363 10364 10365 10367 10368 10368 10368 10369 10369 10369 10369 10369 10367 10366 10365 10364 10363 10363 10363 10363 10363 10362 10361 10359 10357 10355 10353 10350 10348 10346 10344 10342 10342 10342 10342 10342 10343 10343 10343 10343 10342 10339 10337 10334 10331 10328 10325 10323 10321 10319 10317 10314 10309 10305 10300 10296 10297 10296 10289 10282
10297 10301 10304 10305 10305 10310 10317 10320 10319 10320 10324 10328 10332 10333 10333 10334 10334 10334 10335 10336 10337 10338 10339 10341 10342 10344 10346 10346 10347 10348 10349 10349 10349 10349 10348 10349 10350 10350 10351 10351 10350 10348 10347 10345 10344 10344 10344 10343 10343 10342 10341 10339 10337 10335 10332 10330 10327 10325 10325 10325 10325 10325 10325 10325 10326 10327 10325 10322 10320 10318 10315 10313 10310 10307 10303 10301 10299 10298 10295 10292 10286 10279 10276 10276 10273 10266
10287 10289 10290 10291 10292 10297 10302 10304 10304 10306 10312 10316 10319 10319 10320 10321 10321 10321 10321 10322 10323 10324 10325 10326 10327 10328 10330 10331 10332 10332 10333 10333 10332 10331 10331 10330 10330 10331 10331 10331 10331 10331 10330 10329 10328 10326 10324 10323 10322 10322 10321 10320 10319 10317 10315 10312 10309 10307 10306 10306 10306 10306 10305 10305 10306 10307 10307 10304 10301 10299 10297 10295 10293 10290 10286 10282 10279 10277 10276 10276 10274 10268 10259 10253 10250 10248